[[{"header":{"parameterUnit":"m.s-1","parameterCategory":1,"la1":30.2991,"la2":30.254,"lo1":-89.0895,"lo2":-89.0444,"dy":0.0017,"dx":0.0017,"nx":28,"ny":28,"refTime":"2025-09-09T09:00:00:Z","depth":0,"parameterNumber":2,"parameterNumberName":"U-component_of_WINDS"},"data":[0,0,0,0,0,0,0,0,0,0,0,0,0,0,0,0,0,0,0,0,0,0,0,0,0,0,0,0,0,0,0,0,0,0,0,0,0,0,0,0,0,0,0,0,0,0,0,0,0,0,0,0,0,0,0,0,0,0,-0.9384,-0.9384,0,-0.9357,-0.9356,-0.9356,-0.9264,-0.9262,-0.926,-0.9258,-0.9232,-0.9233,-0.9234,0,0,0,0,0,0,0,0,0,0,0,0,0,-0.9361,-0.9362,-0.9385,-0.9384,-0.9384,-0.9357,-0.9356,-0.9356,-0.9265,-0.9262,-0.926,-0.9257,-0.9231,-0.9233,-0.9234,0,0,0,0,0,0,0,0,0,0,0,0,0,-0.9356,-0.9362,-0.9385,-0.9335,-0.933,-0.9357,-0.9356,-0.9356,-0.9265,-0.9262,-0.9259,-0.9256,-0.9231,-0.9233,-0.9234,-0.9307,0,0,-0.924,-0.9241,0,0,0,0,0,0,0,0,-0.9357,-0.9357,-0.9343,-0.9338,-0.9333,-0.9311,-0.9338,-0.934,-0.9266,-0.929,-0.9258,-0.9255,-0.9261,-0.926,-0.9261,-0.9306,-0.9305,-0.924,-0.9241,-0.9242,-0.9243,0,0,0,0,0,0,0,-0.9357,-0.9358,-0.9373,-0.9343,-0.9337,-0.9315,-0.9311,-0.9338,-0.9293,-0.9288,-0.9281,-0.9279,-0.9258,-0.926,-0.926,-0.9304,-0.924,-0.9242,-0.9243,-0.9244,-0.9408,-0.9411,0,0,0,0,0,0,-0.9364,-0.9359,-0.9374,-0.9373,-0.9337,-0.9318,-0.9313,-0.9321,-0.9292,-0.9285,-0.9281,-0.9275,-0.9258,-0.9258,-0.9259,-0.9342,-0.9242,-0.9244,-0.9245,-0.9405,-0.9409,-0.9412,0,0,0,0,0,0,-0.9364,-0.9366,-0.9375,-0.9364,-0.9363,-0.9321,-0.9331,-0.9322,-0.9324,-0.9288,-0.9279,-0.9292,-0.9256,-0.9256,-0.9296,-0.934,-0.9245,-0.9246,-0.9401,-0.9406,-0.941,-0.951,0,0,0,0,0,0,-0.9364,-0.9367,-0.9394,-0.9365,-0.9364,-0.9413,-0.9334,-0.9324,-0.9327,-0.9318,-0.9295,-0.9289,-0.9254,-0.9294,-0.9298,-0.9341,-0.9248,-0.9397,-0.9403,-0.9409,-0.9503,-0.9518,-0.9531,0,0,0,0,0,-0.9363,-0.9423,-0.9395,-0.9398,-0.9397,-0.9415,-0.9415,-0.9373,-0.9331,-0.9358,-0.9335,-0.9289,-0.9335,-0.9298,-0.9302,-0.9347,-0.9394,-0.9401,-0.9408,-0.9497,-0.9515,-0.9531,0,0,0,0,0,0,-0.9458,-0.9418,-0.9387,-0.944,-0.9432,-0.94,-0.9432,-0.9393,-0.9397,-0.9389,-0.9337,-0.9332,-0.938,-0.9367,-0.9327,-0.9416,-0.9357,-0.9365,-0.9423,-0.944,-0.9454,-0.9456,-0.9249,0,0,0,0,0,-0.9485,-0.9503,-0.9468,-0.9517,-0.9515,-0.9475,-0.9481,-0.9449,-0.9439,-0.9435,-0.9415,-0.9407,-0.9419,-0.9429,-0.9438,-0.9501,-0.9495,-0.9533,-0.9547,-0.9559,-0.9567,-0.96,-0.9617,-0.9436,-0.9436,-0.9436,0,0,-0.9542,-0.9522,-0.9536,-0.9536,-0.9526,-0.9546,-0.9472,-0.9497,-0.9512,-0.9439,-0.9475,-0.946,-0.9448,-0.95,-0.9521,-0.9491,-0.9616,-0.9569,-0.9578,-0.958,-0.9609,-0.9627,-0.9642,-0.9441,-0.9441,-0.944,0,0,-0.9654,-0.9641,-0.9681,-0.9673,-0.9658,-0.9631,-0.9641,-0.9615,-0.9602,-0.9637,-0.9584,-0.9601,-0.9623,-0.9617,-0.9617,-0.9729,-0.9687,-0.9733,-0.9807,-0.984,-0.9854,-0.9866,-0.9907,-0.9922,-0.9741,-0.9742,-0.9742,0,-0.9726,-0.9754,-0.9707,-0.9735,-0.9737,-0.9672,-0.9712,-0.9707,-0.9697,-0.97,-0.9665,-0.9692,-0.968,-0.9729,-0.9757,-0.9759,-0.9769,-0.9736,-0.9856,-0.9868,-0.9878,-0.9916,-0.9932,-0.9747,-0.9747,-0.9746,-0.9746,0,-0.9843,-0.9864,-0.9898,-0.9889,-0.9895,-0.9929,-0.9888,-0.99,-0.9868,-0.9845,-0.9882,-0.9865,-0.987,-0.9879,-0.9848,-0.9925,-0.9906,-0.9865,-0.9804,-0.9902,-0.9937,-0.9951,-0.9756,-0.9753,-0.9752,-0.975,0,0,-1.0015,-0.998,-0.9994,-0.9989,-0.9969,-0.9984,-1.0016,-1.002,-1.0032,-1.0027,-1.0053,-1.0074,-1.0035,-1.0036,-1.0003,-1.0032,-1.0122,-0.9987,-0.9986,-1.0013,-1.0207,-1.0239,-1.0256,-1.0095,-1.0097,-1.0099,-1.0208,0,-1.0122,-1.0174,-1.0133,-1.0193,-1.0212,-1.015,-1.0178,-1.0169,-1.0149,-1.0162,-1.014,-1.0156,-1.0103,-1.0103,-1.0128,-1.0106,-1.0161,-1.0098,-1.012,-1.0121,-1.0125,-1.0274,-1.0308,-1.0411,-1.0221,-1.0224,-1.0225,0,-1.0254,-1.0256,-1.0317,-1.0293,-1.03,-1.0325,-1.0327,-1.034,-1.0329,-1.0312,-1.0313,-1.0273,-1.0304,-1.0244,-1.0286,-1.0244,-1.0251,-1.0241,-1.0244,-1.0245,-1.0179,-1.028,-1.0443,-1.0459,-1.0246,-1.0244,-1.0243,0,-1.0375,-1.0391,-1.043,-1.0428,-1.0402,-1.0421,-1.0411,-1.0397,-1.0403,-1.0404,-1.0407,-1.0412,-1.0416,-1.0421,-1.0384,-1.0344,-1.0431,-1.0368,-1.0419,-1.042,-1.0441,-1.044,-1.0608,-1.0444,-1.0444,-1.0444,-1.0443,0,-1.0499,-1.0539,-1.0484,-1.0508,-1.0552,-1.0505,-1.0549,-1.0533,-1.0521,-1.0542,-1.0489,-1.051,-1.0459,-1.0475,-1.0447,-1.0486,-1.0488,-1.0476,-1.0468,-1.0481,-1.0483,-1.0485,-1.0477,-1.0448,-1.0447,-1.0446,-1.0445,0,-1.0641,-1.0605,-1.0644,-1.0615,-1.0609,-1.0643,-1.0618,-1.064,-1.0616,-1.0643,-1.0646,-1.0609,-1.0625,-1.0589,-1.06,-1.058,-1.0637,-1.0618,-1.0641,-1.0635,-1.0688,-1.0684,-1.0864,-1.0885,-1.0708,-1.071,-1.0711,0,-1.0723,-1.0752,-1.0727,-1.0736,-1.0729,-1.0745,-1.0751,-1.0706,-1.0714,-1.0704,-1.0727,-1.0738,-1.0745,-1.0773,-1.0748,-1.0756,-1.0737,-1.0799,-1.0738,-1.075,-1.0739,-1.0738,-1.0741,-1.0812,-1.0814,-1.0816,-1.0818,0,-1.0872,-1.0853,-1.0863,-1.0867,-1.0874,-1.0875,-1.0872,-1.0884,-1.0836,-1.0848,-1.0863,-1.0868,-1.0879,-1.0891,-1.0894,-1.0884,-1.0844,-1.0837,-1.0849,-1.0863,-1.0876,-1.0871,-1.0676,-1.0833,-1.0832,-1.0831,-1.083,-1.0829,-1.0987,-1.1011,-1.0997,-1.1009,-1.1002,-1.1001,-1.102,-1.0999,-1.101,-1.1015,-1.0988,-1.101,-1.0999,-1.0998,-1.0992,-1.1009,-1.0981,-1.0999,-1.1003,-1.1009,-1.1018,-1.0873,-1.1009,-1.1009,-1.1008,-1.1008,-1.1008,0,-1.1134,-1.1122,-1.1134,-1.1132,-1.1142,-1.1102,-1.1097,-1.1109,-1.1128,-1.1121,-1.1129,-1.1147,-1.1159,-1.1135,-1.1143,-1.1161,-1.1143,-1.1165,-1.1163,-1.1162,-1.1042,-1.1031,-1.118,-1.118,-1.118,-1.118,-1.1179,-1.1179,-1.1212,-1.1251,-1.123,-1.1265,-1.1252,-1.1273,-1.1274,-1.1273,-1.1267,-1.1289,-1.1299,-1.1282,-1.1269,-1.1276,-1.1285,-1.1278,-1.1284,-1.1312,-1.1299,-1.1187,-1.117,-1.1154,-1.1144,-1.1314,-1.1314,-1.1418,-1.1419,-1.1419]},{"header":{"parameterUnit":"m.s-1","parameterCategory":1,"la1":30.2991,"la2":30.254,"lo1":-89.0895,"lo2":-89.0444,"dy":0.0017,"dx":0.0017,"nx":28,"ny":28,"refTime":"2025-09-09T09:00:00:Z","depth":0,"parameterNumber":3,"parameterNumberName":"V-component_of_WINDS"},"data":[0,0,0,0,0,0,0,0,0,0,0,0,0,0,0,0,0,0,0,0,0,0,0,0,0,0,0,0,0,0,0,0,0,0,0,0,0,0,0,0,0,0,0,0,0,0,0,0,0,0,0,0,0,0,0,0,0,0,1.0884,1.0883,0,1.0853,1.0852,1.0852,1.0818,1.0817,1.0817,1.0816,1.0783,1.0783,1.0782,0,0,0,0,0,0,0,0,0,0,0,0,0,1.0912,1.0912,1.0884,1.0883,1.0883,1.0853,1.0852,1.0852,1.0818,1.0817,1.0817,1.0816,1.0783,1.0783,1.0782,0,0,0,0,0,0,0,0,0,0,0,0,0,1.0892,1.0912,1.0884,1.0862,1.086,1.0853,1.0852,1.0852,1.0818,1.0817,1.0817,1.0816,1.0783,1.0783,1.0782,1.0793,0,0,1.078,1.078,0,0,0,0,0,0,0,0,1.0894,1.0891,1.0866,1.0864,1.0861,1.0838,1.085,1.0832,1.0818,1.0834,1.0816,1.0816,1.0802,1.08,1.0795,1.0791,1.079,1.078,1.078,1.0779,1.0779,0,0,0,0,0,0,0,1.0895,1.0892,1.0871,1.0866,1.0863,1.0854,1.085,1.0846,1.0822,1.0833,1.083,1.0827,1.0801,1.0796,1.0794,1.0789,1.078,1.0779,1.0779,1.0779,1.0792,1.0792,0,0,0,0,0,0,1.09,1.0894,1.0872,1.087,1.0876,1.0854,1.085,1.0847,1.0822,1.0818,1.0828,1.0826,1.0798,1.0795,1.0793,1.0804,1.0779,1.0779,1.0778,1.0791,1.0792,1.0793,0,0,0,0,0,0,1.09,1.0898,1.0874,1.0881,1.0878,1.0854,1.0851,1.0846,1.0842,1.0819,1.0814,1.0828,1.0797,1.0794,1.0793,1.0802,1.0778,1.0778,1.079,1.0791,1.0792,1.0826,0,0,0,0,0,0,1.0901,1.0899,1.0903,1.0882,1.0877,1.0875,1.0851,1.0846,1.0841,1.0838,1.0817,1.0813,1.0796,1.0794,1.0792,1.0801,1.0777,1.0789,1.0791,1.0792,1.0824,1.0828,1.0831,0,0,0,0,0,1.0903,1.0913,1.0903,1.0901,1.0882,1.0875,1.0873,1.0853,1.0842,1.0846,1.0831,1.0814,1.0802,1.0794,1.0792,1.0801,1.0788,1.079,1.0792,1.0822,1.0827,1.0831,0,0,0,0,0,0,1.0935,1.091,1.0899,1.0903,1.0892,1.087,1.0874,1.0859,1.0851,1.0848,1.0824,1.0819,1.0821,1.0811,1.0803,1.0809,1.0793,1.0794,1.0816,1.0821,1.0825,1.0827,1.0777,0,0,0,0,0,1.0943,1.094,1.0918,1.0924,1.0919,1.0897,1.0894,1.088,1.0867,1.0862,1.0847,1.0834,1.0827,1.0824,1.0816,1.0822,1.0817,1.0826,1.083,1.0833,1.0835,1.0837,1.0841,1.0798,1.0798,1.0798,0,0,1.0959,1.0945,1.0944,1.093,1.092,1.0917,1.0894,1.0891,1.0889,1.0861,1.0859,1.0848,1.0833,1.0835,1.0835,1.0826,1.0846,1.0836,1.0838,1.0838,1.0839,1.0843,1.0847,1.0799,1.0799,1.0799,0,0,1.0986,1.0976,1.0979,1.0969,1.0954,1.094,1.0941,1.0921,1.0912,1.0911,1.089,1.0886,1.0875,1.0865,1.0858,1.0882,1.0866,1.088,1.09,1.0902,1.0906,1.0909,1.0917,1.092,1.0881,1.0882,1.0882,0,1.1008,1.1003,1.0983,1.0982,1.0976,1.0951,1.0955,1.0946,1.0929,1.0925,1.0915,1.0901,1.0889,1.0889,1.0895,1.089,1.089,1.0882,1.0907,1.091,1.0912,1.092,1.0923,1.0883,1.0883,1.0883,1.0883,0,1.103,1.1027,1.1032,1.1017,1.1011,1.1013,1.0992,1.0989,1.0975,1.0962,1.096,1.0945,1.0934,1.0933,1.0919,1.093,1.0925,1.0912,1.0894,1.0918,1.0925,1.0928,1.0886,1.0885,1.0885,1.0884,0,0,1.1078,1.1051,1.1053,1.1046,1.1027,1.1024,1.1024,1.1014,1.1012,1.1001,1.1,1.0991,1.0978,1.0971,1.0956,1.0958,1.0978,1.0944,1.0943,1.0951,1.0989,1.0999,1.1003,1.0967,1.0968,1.0968,1.099,0,1.1102,1.1101,1.1082,1.1086,1.1083,1.106,1.1059,1.1048,1.1035,1.103,1.1016,1.101,1.0994,1.0989,1.099,1.0975,1.0985,1.0973,1.0966,1.0966,1.097,1.1007,1.1018,1.1039,1.0993,1.0993,1.0993,0,1.113,1.1121,1.1125,1.1106,1.1104,1.1105,1.1094,1.1089,1.1075,1.1066,1.1058,1.1041,1.1039,1.1023,1.102,1.1012,1.1008,1.1,1.1,1.0999,1.0981,1.1006,1.1046,1.1049,1.0997,1.0997,1.0997,0,1.1164,1.1153,1.1154,1.1149,1.1127,1.1127,1.1118,1.1104,1.1099,1.1089,1.1085,1.1075,1.107,1.1062,1.1043,1.1033,1.1041,1.1024,1.1033,1.1034,1.1036,1.1036,1.1076,1.1034,1.1034,1.1033,1.1033,0,1.1193,1.1197,1.1169,1.117,1.1173,1.1151,1.1154,1.1143,1.113,1.1127,1.1106,1.1104,1.1079,1.1074,1.1059,1.1058,1.1056,1.1048,1.1044,1.105,1.1051,1.1047,1.1045,1.1034,1.1034,1.1034,1.1034,0,1.1232,1.1214,1.1213,1.1193,1.1188,1.1191,1.1173,1.1172,1.1158,1.1155,1.1153,1.1131,1.1124,1.1104,1.1092,1.1082,1.1086,1.1078,1.1091,1.1088,1.1099,1.1098,1.1137,1.1141,1.1096,1.1097,1.1097,0,1.1252,1.1254,1.1234,1.1231,1.1223,1.1218,1.1213,1.1191,1.1187,1.1171,1.1172,1.1164,1.1156,1.1145,1.1128,1.1118,1.111,1.1125,1.1109,1.1115,1.1111,1.1111,1.1111,1.1128,1.1129,1.1129,1.113,0,1.1289,1.128,1.1274,1.1264,1.1259,1.125,1.124,1.1239,1.1215,1.1211,1.1204,1.1198,1.1185,1.1177,1.1164,1.1154,1.1138,1.1135,1.1137,1.1143,1.115,1.1146,1.11,1.1134,1.1134,1.1133,1.1133,1.1133,1.1319,1.1319,1.1305,1.1299,1.1289,1.1281,1.1279,1.1265,1.1259,1.1248,1.1235,1.123,1.1215,1.1197,1.1188,1.1183,1.1174,1.1176,1.1177,1.1178,1.1181,1.1151,1.118,1.118,1.118,1.118,1.118,0,1.1355,1.1345,1.1339,1.1326,1.1321,1.1307,1.1295,1.1291,1.1287,1.1275,1.1268,1.1259,1.1251,1.1233,1.1223,1.1222,1.1214,1.122,1.122,1.1218,1.1189,1.1189,1.1227,1.1227,1.1227,1.1227,1.1227,1.1227,1.1373,1.1374,1.1363,1.1358,1.1347,1.1342,1.1337,1.1328,1.1319,1.1311,1.1304,1.1292,1.1278,1.1266,1.1258,1.1253,1.125,1.1258,1.1251,1.1224,1.122,1.1216,1.1215,1.1258,1.1258,1.128,1.128,1.128]}]]